,,,PA_Meas_PMT16A,,PR_Meas_QMR101_102,,RH_Meas_QMH101,,SR_Meas_QMS101,,TA_Meas_QMH101,,GenWind,,GenWind,
date,time,status,PA,status,PR,status,RH,status,SR,status,TA,status,DirAvg,status,SpdAvg,
2009-12-24, 00:00:04,VALID,1004.9,VALID,0,VALID,94.2548,VALID,0,VALID,24.091,VALID,358,VALID,0,
2009-12-24, 00:01:04,VALID,1004.86,VALID,0,VALID,94.2701,VALID,0,VALID,24.0716,VALID,358,VALID,0,
2009-12-24, 00:02:04,VALID,1004.87,VALID,0,VALID,94.2548,VALID,0,VALID,24.0716,VALID,358,VALID,0,
2009-12-24, 00:03:04,VALID,1004.87,VALID,0,VALID,94.2472,VALID,0,VALID,24.091,VALID,358,VALID,0,
2009-12-24, 00:04:04,VALID,1004.8,VALID,0,VALID,94.2701,VALID,0,VALID,24.091,VALID,358,VALID,0,
2009-12-24, 00:05:04,VALID,1004.8,VALID,0,VALID,94.2624,VALID,0.100563,VALID,24.0716,VALID,358,VALID,0,
2009-12-24, 00:06:04,VALID,1004.74,VALID,0,VALID,94.2624,VALID,0,VALID,24.0716,VALID,358,VALID,0,
2009-12-24, 00:07:04,VALID,1004.75,VALID,0,VALID,94.209,VALID,0,VALID,24.0326,VALID,358,VALID,0,
2009-12-24, 00:08:04,VALID,1004.72,VALID,0,VALID,94.1785,VALID,0,VALID,23.9937,VALID,358,VALID,0,
2009-12-24, 00:09:04,VALID,1004.71,VALID,0,VALID,94.1633,VALID,0,VALID,23.9937,VALID,358,VALID,0,
2009-12-24, 00:10:04,VALID,1004.68,VALID,0,VALID,94.1785,VALID,0,VALID,23.9742,VALID,358,VALID,0,
2009-12-24, 00:11:04,VALID,1004.69,VALID,0,VALID,94.209,VALID,0,VALID,23.9742,VALID,358,VALID,0,
2009-12-24, 00:12:04,VALID,1004.64,VALID,0,VALID,94.2396,VALID,0,VALID,23.9742,VALID,358,VALID,0,
2009-12-24, 00:13:04,VALID,1004.65,VALID,0,VALID,94.2701,VALID,0,VALID,23.9937,VALID,358,VALID,0,
2009-12-24, 00:14:04,VALID,1004.62,VALID,0,VALID,94.3235,VALID,0,VALID,23.9937,VALID,358,VALID,0,
2009-12-24, 00:15:04,VALID,1004.61,VALID,0,VALID,94.3387,VALID,0,VALID,24.0132,VALID,358,VALID,0,
2009-12-24, 00:16:04,VALID,1004.61,VALID,0,VALID,94.354,VALID,0,VALID,23.9937,VALID,358,VALID,0,
2009-12-24, 00:17:04,VALID,1004.57,VALID,0,VALID,94.3845,VALID,0,VALID,24.0132,VALID,358,VALID,0,
2009-12-24, 00:18:04,VALID,1004.56,VALID,0,VALID,94.3845,VALID,0,VALID,24.0132,VALID,358,VALID,0,
2009-12-24, 00:19:04,VALID,1004.56,VALID,0,VALID,94.3998,VALID,0,VALID,24.0132,VALID,358,VALID,0,
2009-12-24, 00:20:04,VALID,1004.52,VALID,0,VALID,94.3769,VALID,0,VALID,24.0132,VALID,358,VALID,0,
2009-12-24, 00:21:04,VALID,1004.54,VALID,0,VALID,94.3464,VALID,0,VALID,23.9937,VALID,358,VALID,0,
2009-12-24, 00:22:04,VALID,1004.5,VALID,0,VALID,94.354,VALID,0,VALID,23.9937,VALID,358,VALID,0,
2009-12-24, 00:23:04,VALID,1004.48,VALID,0,VALID,94.3235,VALID,0,VALID,23.9937,VALID,358,VALID,0,
2009-12-24, 00:24:04,VALID,1004.47,VALID,0,VALID,94.293,VALID,0,VALID,23.9742,VALID,358,VALID,0,
2009-12-24, 00:25:04,VALID,1004.45,VALID,0,VALID,94.3311,VALID,0,VALID,23.9937,VALID,358,VALID,0,
2009-12-24, 00:26:04,VALID,1004.45,VALID,0,VALID,94.3235,VALID,0,VALID,24.0132,VALID,358,VALID,0,
2009-12-24, 00:27:04,VALID,1004.44,VALID,0,VALID,94.3082,VALID,0,VALID,24.0132,VALID,358,VALID,0,
2009-12-24, 00:28:04,VALID,1004.45,VALID,0,VALID,94.3311,VALID,0,VALID,24.0345,VALID,358,VALID,0,
2009-12-24, 00:29:04,VALID,1004.43,VALID,0,VALID,94.3006,VALID,0,VALID,24.0132,VALID,358,VALID,0,
2009-12-24, 00:30:04,VALID,1004.38,VALID,0,VALID,94.2548,VALID,0,VALID,23.9937,VALID,358,VALID,0,
2009-12-24, 00:31:04,VALID,1004.4,VALID,0,VALID,94.2243,VALID,0,VALID,23.9742,VALID,358,VALID,0,
2009-12-24, 00:32:04,VALID,1004.39,VALID,0,VALID,94.1785,VALID,0,VALID,23.9761,VALID,358,VALID,0,
2009-12-24, 00:33:04,VALID,1004.4,VALID,0,VALID,94.1709,VALID,0,VALID,23.9742,VALID,358,VALID,0,
2009-12-24, 00:34:04,VALID,1004.37,VALID,0,VALID,94.1938,VALID,0,VALID,23.9955,VALID,358,VALID,0,
2009-12-24, 00:35:04,VALID,1004.34,VALID,0,VALID,94.1862,VALID,0,VALID,23.9937,VALID,358,VALID,0,
2009-12-24, 00:36:04,VALID,1004.35,VALID,0,VALID,94.1404,VALID,0,VALID,23.9742,VALID,358,VALID,0,
2009-12-24, 00:37:04,VALID,1004.33,VALID,0,VALID,94.1328,VALID,0,VALID,24.015,VALID,358,VALID,0,
2009-12-24, 00:38:04,VALID,1004.33,VALID,0,VALID,94.1328,VALID,0,VALID,24.0132,VALID,358,VALID,0,
2009-12-24, 00:39:04,VALID,1004.29,VALID,0,VALID,94.1099,VALID,0,VALID,24.0132,VALID,358,VALID,0,
2009-12-24, 00:40:04,VALID,1004.29,VALID,0,VALID,94.0946,VALID,0,VALID,24.0326,VALID,358,VALID,0,
2009-12-24, 00:41:04,VALID,1004.28,VALID,0,VALID,94.0488,VALID,0,VALID,24.0326,VALID,358,VALID,0,
2009-12-24, 00:42:04,VALID,1004.25,VALID,0,VALID,94.0259,VALID,0,VALID,24.0345,VALID,358,VALID,0,
2009-12-24, 00:43:04,VALID,1004.21,VALID,0,VALID,93.9878,VALID,0,VALID,24.0521,VALID,358,VALID,0,
2009-12-24, 00:44:04,VALID,1004.19,VALID,0,VALID,93.942,VALID,0.100563,VALID,24.0326,VALID,358,VALID,0,
2009-12-24, 00:45:04,VALID,1004.2,VALID,0,VALID,93.9115,VALID,0,VALID,24.0503,VALID,358,VALID,0,
2009-12-24, 00:46:04,VALID,1004.17,VALID,0,VALID,93.8047,VALID,0,VALID,24.0521,VALID,358,VALID,0,
2009-12-24, 00:47:04,VALID,1004.16,VALID,0,VALID,93.7208,VALID,0,VALID,24.0521,VALID,358,VALID,0,
2009-12-24, 00:48:04,VALID,1004.16,VALID,0,VALID,93.7284,VALID,0.100563,VALID,24.0716,VALID,356,VALID,0,
2009-12-24, 00:49:04,VALID,1004.15,VALID,0,VALID,93.675,VALID,0.100563,VALID,24.1105,VALID,344,VALID,0,
2009-12-24, 00:50:04,VALID,1004.11,VALID,0,VALID,93.5835,VALID,0,VALID,24.13,VALID,344,VALID,0,
2009-12-24, 00:51:04,VALID,1004.11,VALID,0,VALID,93.4919,VALID,0.100563,VALID,24.13,VALID,359,VALID,0,
2009-12-24, 00:52:04,VALID,1004.08,VALID,0,VALID,93.4233,VALID,0,VALID,24.1884,VALID,29,VALID,0.866406,
2009-12-24, 00:53:04,VALID,1004.05,VALID,0,VALID,93.2554,VALID,0,VALID,24.2857,VALID,20,VALID,0.496875,
2009-12-24, 00:54:04,VALID,1004.07,VALID,0,VALID,93.0266,VALID,0,VALID,24.422,VALID,350,VALID,0.887891,
2009-12-24, 00:55:04,VALID,1004.03,VALID,0,VALID,92.4925,VALID,0.100563,VALID,24.5174,VALID,8,VALID,0.430469,
2009-12-24, 00:56:04,VALID,1004,VALID,0,VALID,91.7525,VALID,0.100563,VALID,24.6166,VALID,19,VALID,0.278906,
2009-12-24, 00:57:04,VALID,1004,VALID,0,VALID,91.1575,VALID,0,VALID,24.714,VALID,5,VALID,0.780078,
2009-12-24, 00:58:04,VALID,1003.99,VALID,0,VALID,90.4404,VALID,0,VALID,24.8308,VALID,6,VALID,0.700781,
2009-12-24, 00:59:04,VALID,1003.99,VALID,0,VALID,89.853,VALID,0.100563,VALID,24.9282,VALID,10,VALID,1.35391,
2009-12-24, 01:00:04,VALID,1003.98,VALID,0,VALID,89.2045,VALID,0,VALID,25.0041,VALID,352,VALID,0.623047,
2009-12-24, 01:01:04,VALID,1003.96,VALID,0,VALID,88.6934,VALID,0.100563,VALID,25.082,VALID,331,VALID,0.786328,
2009-12-24, 01:02:04,VALID,1003.95,VALID,0,VALID,88.2661,VALID,0,VALID,25.1423,VALID,355,VALID,0.471875,
2009-12-24, 01:03:04,VALID,1003.95,VALID,0,VALID,88.0983,VALID,0,VALID,25.1423,VALID,353,VALID,0.555469,
2009-12-24, 01:04:04,VALID,1003.92,VALID,0,VALID,88.1593,VALID,0,VALID,25.1423,VALID,351,VALID,0.423828,
2009-12-24, 01:05:04,VALID,1003.9,VALID,0,VALID,88.1975,VALID,0,VALID,25.1034,VALID,351,VALID,0.532812,
2009-12-24, 01:06:04,VALID,1003.89,VALID,0,VALID,88.3348,VALID,0,VALID,25.0839,VALID,351,VALID,0.463281,
2009-12-24, 01:07:04,VALID,1003.87,VALID,0,VALID,88.3882,VALID,0.100563,VALID,25.0644,VALID,351,VALID,0.345703,
2009-12-24, 01:08:04,VALID,1003.86,VALID,0,VALID,88.4111,VALID,0.100563,VALID,25.045,VALID,356,VALID,0.825,
2009-12-24, 01:09:04,VALID,1003.85,VALID,0,VALID,88.5179,VALID,0.100563,VALID,25.0255,VALID,358,VALID,0.280859,
2009-12-24, 01:10:04,VALID,1003.84,VALID,0,VALID,88.6018,VALID,0,VALID,25.006,VALID,358,VALID,0.376953,
2009-12-24, 01:11:04,VALID,1003.84,VALID,0,VALID,88.7239,VALID,0.100563,VALID,24.9885,VALID,356,VALID,0.416797,
2009-12-24, 01:12:04,VALID,1003.8,VALID,0,VALID,88.8002,VALID,0.100563,VALID,24.9671,VALID,355,VALID,0.564453,
2009-12-24, 01:13:04,VALID,1003.77,VALID,0,VALID,88.8383,VALID,0.100563,VALID,24.9476,VALID,360,VALID,0.696094,
2009-12-24, 01:14:04,VALID,1003.74,VALID,0,VALID,88.7162,VALID,0,VALID,24.9476,VALID,360,VALID,0.479688,
2009-12-24, 01:15:04,VALID,1003.73,VALID,0,VALID,88.5713,VALID,0.100563,VALID,24.9671,VALID,360,VALID,0.709375,
2009-12-24, 01:16:04,VALID,1003.69,VALID,0,VALID,88.5942,VALID,0.100563,VALID,24.9457,VALID,360,VALID,0.618359,
2009-12-24, 01:17:04,VALID,1003.65,VALID,0,VALID,88.6705,VALID,0,VALID,24.9476,VALID,360,VALID,0.516797,
2009-12-24, 01:18:04,VALID,1003.63,VALID,0,VALID,88.8078,VALID,0.100563,VALID,24.9068,VALID,16,VALID,0.986328,
2009-12-24, 01:19:04,VALID,1003.6,VALID,0,VALID,88.8536,VALID,0.100563,VALID,24.9671,VALID,18,VALID,0.529688,
2009-12-24, 01:20:04,VALID,1003.57,VALID,0,VALID,88.5789,VALID,0.100563,VALID,24.9652,VALID,353,VALID,0.523047,
2009-12-24, 01:21:04,VALID,1003.56,VALID,0,VALID,88.5179,VALID,0,VALID,24.9866,VALID,353,VALID,0.544141,
2009-12-24, 01:22:04,VALID,1003.56,VALID,0,VALID,88.5789,VALID,0,VALID,24.9671,VALID,6,VALID,0.715234,
2009-12-24, 01:23:04,VALID,1003.52,VALID,0,VALID,88.6323,VALID,0.100563,VALID,24.9671,VALID,4,VALID,0.468359,
2009-12-24, 01:24:04,VALID,1003.54,VALID,0,VALID,88.5942,VALID,0,VALID,24.9671,VALID,4,VALID,0.240234,
2009-12-24, 01:25:04,VALID,1003.54,VALID,0,VALID,88.6171,VALID,0.100563,VALID,24.9476,VALID,350,VALID,0.511328,
2009-12-24, 01:26:04,VALID,1003.51,VALID,0,VALID,88.6323,VALID,0,VALID,24.9263,VALID,19,VALID,0.681641,
2009-12-24, 01:27:04,VALID,1003.52,VALID,0,VALID,88.7391,VALID,0,VALID,24.9263,VALID,19,VALID,0.329688,
2009-12-24, 01:28:04,VALID,1003.53,VALID,0,VALID,88.8459,VALID,0,VALID,24.9087,VALID,19,VALID,0.292188,
2009-12-24, 01:29:04,VALID,1003.5,VALID,0,VALID,88.9146,VALID,0,VALID,24.8892,VALID,19,VALID,0,
2009-12-24, 01:30:04,VALID,1003.48,VALID,0,VALID,89.0519,VALID,0,VALID,24.8697,VALID,19,VALID,0,
2009-12-24, 01:31:04,VALID,1003.46,VALID,0,VALID,89.113,VALID,0,VALID,24.8697,VALID,356,VALID,0.488281,
2009-12-24, 01:32:04,VALID,1003.43,VALID,0,VALID,89.1435,VALID,0.100563,VALID,24.8503,VALID,353,VALID,0.2375,
2009-12-24, 01:33:04,VALID,1003.42,VALID,0,VALID,89.1206,VALID,0.100563,VALID,24.8716,VALID,353,VALID,0.421094,
2009-12-24, 01:34:04,VALID,1003.38,VALID,0,VALID,89.235,VALID,0,VALID,24.8113,VALID,353,VALID,0.328125,
2009-12-24, 01:35:04,VALID,1003.37,VALID,0,VALID,89.38,VALID,0.100563,VALID,24.7919,VALID,357,VALID,0.644531,
2009-12-24, 01:36:04,VALID,1003.34,VALID,0,VALID,89.3647,VALID,0.100563,VALID,24.8308,VALID,8,VALID,0.476563,
2009-12-24, 01:37:04,VALID,1003.31,VALID,0,VALID,89.3113,VALID,0,VALID,24.8308,VALID,360,VALID,0.435547,
2009-12-24, 01:38:04,VALID,1003.34,VALID,0,VALID,89.3418,VALID,0,VALID,24.8113,VALID,1,VALID,0.498047,
2009-12-24, 01:39:04,VALID,1003.35,VALID,0,VALID,89.2808,VALID,0.100563,VALID,24.8308,VALID,360,VALID,0.0511719,
2009-12-24, 01:40:04,VALID,1003.33,VALID,0,VALID,89.1358,VALID,0.100563,VALID,24.8503,VALID,360,VALID,0,
2009-12-24, 01:41:04,VALID,1003.31,VALID,0,VALID,89.0519,VALID,0,VALID,24.8503,VALID,360,VALID,0,
2009-12-24, 01:42:04,VALID,1003.29,VALID,0,VALID,89.1435,VALID,0.100563,VALID,24.8503,VALID,360,VALID,0,
2009-12-24, 01:43:04,VALID,1003.32,VALID,0,VALID,89.1206,VALID,0,VALID,24.8503,VALID,360,VALID,0,
2009-12-24, 01:44:04,VALID,1003.29,VALID,0,VALID,89.1282,VALID,0,VALID,24.8308,VALID,360,VALID,0,
2009-12-24, 01:45:04,VALID,1003.31,VALID,0,VALID,89.2579,VALID,0,VALID,24.8113,VALID,360,VALID,0,
2009-12-24, 01:46:04,VALID,1003.28,VALID,0,VALID,89.3037,VALID,0,VALID,24.8308,VALID,359,VALID,0.230078,
2009-12-24, 01:47:04,VALID,1003.28,VALID,0,VALID,89.1892,VALID,0,VALID,24.8113,VALID,358,VALID,0.261328,
2009-12-24, 01:48:04,VALID,1003.29,VALID,0,VALID,89.1664,VALID,0,VALID,24.8308,VALID,358,VALID,0.244531,
2009-12-24, 01:49:04,VALID,1003.27,VALID,0,VALID,89.0977,VALID,0,VALID,24.8308,VALID,343,VALID,0.374219,
2009-12-24, 01:50:04,VALID,1003.27,VALID,0,VALID,88.9756,VALID,0,VALID,24.8503,VALID,343,VALID,0,
2009-12-24, 01:51:04,VALID,1003.26,VALID,0,VALID,88.9375,VALID,0,VALID,24.8892,VALID,332,VALID,0.523828,
2009-12-24, 01:52:04,VALID,1003.25,VALID,0,VALID,88.8231,VALID,0,VALID,24.8892,VALID,5,VALID,0.675,
2009-12-24, 01:53:04,VALID,1003.25,VALID,0,VALID,88.6705,VALID,0,VALID,24.9282,VALID,357,VALID,1.18398,
2009-12-24, 01:54:04,VALID,1003.24,VALID,0,VALID,88.6171,VALID,0.100563,VALID,24.9282,VALID,16,VALID,0.600391,
2009-12-24, 01:55:04,VALID,1003.23,VALID,0,VALID,88.7925,VALID,0.100563,VALID,24.8697,VALID,17,VALID,0.339063,
2009-12-24, 01:56:04,VALID,1003.23,VALID,0,VALID,88.9451,VALID,0.100563,VALID,24.8308,VALID,13,VALID,0.569141,
2009-12-24, 01:57:04,VALID,1003.21,VALID,0,VALID,89.1053,VALID,0,VALID,24.79,VALID,354,VALID,0.313672,
2009-12-24, 01:58:04,VALID,1003.25,VALID,0,VALID,88.968,VALID,0,VALID,24.8113,VALID,354,VALID,0,
2009-12-24, 01:59:04,VALID,1003.21,VALID,0,VALID,89.0138,VALID,0,VALID,24.7919,VALID,354,VALID,0.0121094,
2009-12-24, 02:00:04,VALID,1003.23,VALID,0,VALID,89.0443,VALID,0,VALID,24.7937,VALID,354,VALID,0,
2009-12-24, 02:01:04,VALID,1003.2,VALID,0,VALID,89.1816,VALID,0,VALID,24.7529,VALID,354,VALID,0.200781,
2009-12-24, 02:02:04,VALID,1003.19,VALID,0,VALID,89.2884,VALID,0.100563,VALID,24.7529,VALID,351,VALID,0.0546875,
2009-12-24, 02:03:04,VALID,1003.17,VALID,0,VALID,89.2884,VALID,0,VALID,24.7529,VALID,356,VALID,0.625,
2009-12-24, 02:04:04,VALID,1003.16,VALID,0,VALID,89.1511,VALID,0,VALID,24.7919,VALID,356,VALID,0.407813,
2009-12-24, 02:05:04,VALID,1003.14,VALID,0,VALID,89.174,VALID,0,VALID,24.8132,VALID,356,VALID,0.298047,
2009-12-24, 02:06:04,VALID,1003.18,VALID,0,VALID,89.2198,VALID,0,VALID,24.7919,VALID,356,VALID,0.24375,
2009-12-24, 02:07:04,VALID,1003.16,VALID,0,VALID,89.1587,VALID,0.100563,VALID,24.7724,VALID,356,VALID,0.151172,
2009-12-24, 02:08:04,VALID,1003.16,VALID,0,VALID,89.1511,VALID,0,VALID,24.7724,VALID,356,VALID,0.146484,
2009-12-24, 02:09:04,VALID,1003.17,VALID,0,VALID,89.113,VALID,0.100563,VALID,24.751,VALID,356,VALID,0,
2009-12-24, 02:10:04,VALID,1003.14,VALID,0,VALID,89.174,VALID,0,VALID,24.7956,VALID,356,VALID,0.0046875,
2009-12-24, 02:11:04,VALID,1003.12,VALID,0,VALID,89.2198,VALID,0.100563,VALID,24.7937,VALID,356,VALID,0.295703,
2009-12-24, 02:12:04,VALID,1003.13,VALID,0,VALID,89.296,VALID,0,VALID,24.7724,VALID,356,VALID,0.1375,
2009-12-24, 02:13:05,VALID,1003.12,VALID,0,VALID,89.3418,VALID,0,VALID,24.7335,VALID,356,VALID,0.332031,
2009-12-24, 02:14:05,VALID,1003.11,VALID,0,VALID,89.3723,VALID,0.100563,VALID,24.7529,VALID,356,VALID,0.287109,
2009-12-24, 02:15:05,VALID,1003.09,VALID,0,VALID,89.2426,VALID,0,VALID,24.7529,VALID,355,VALID,0.343359,
2009-12-24, 02:16:05,VALID,1003.08,VALID,0,VALID,88.9833,VALID,0,VALID,24.751,VALID,354,VALID,0.364453,
2009-12-24, 02:17:05,VALID,1003.09,VALID,0,VALID,88.9222,VALID,0,VALID,24.7919,VALID,354,VALID,0,
2009-12-24, 02:18:05,VALID,1003.09,VALID,0,VALID,88.6934,VALID,0,VALID,24.7919,VALID,354,VALID,0,
2009-12-24, 02:19:05,VALID,1003.07,VALID,0,VALID,88.7086,VALID,0,VALID,24.7724,VALID,354,VALID,0.171484,
2009-12-24, 02:20:05,VALID,1003.07,VALID,0,VALID,88.7697,VALID,0,VALID,24.7724,VALID,354,VALID,0,
2009-12-24, 02:21:05,VALID,1003.07,VALID,0,VALID,88.7315,VALID,0,VALID,24.7529,VALID,354,VALID,0,
2009-12-24, 02:22:05,VALID,1003.1,VALID,0,VALID,88.7849,VALID,0,VALID,24.7724,VALID,354,VALID,0,
2009-12-24, 02:23:05,VALID,1003.09,VALID,0,VALID,88.7315,VALID,0,VALID,24.7529,VALID,354,VALID,0.00117188,
2009-12-24, 02:24:05,VALID,1003.07,VALID,0,VALID,88.6018,VALID,0,VALID,24.7919,VALID,7,VALID,0.554688,
2009-12-24, 02:25:05,VALID,1003.09,VALID,0,VALID,88.2814,VALID,0,VALID,24.8503,VALID,355,VALID,0.200391,
2009-12-24, 02:26:05,VALID,1003.08,VALID,0,VALID,88.0449,VALID,0,VALID,24.8484,VALID,355,VALID,0,
2009-12-24, 02:27:05,VALID,1003.08,VALID,0,VALID,88.0449,VALID,0,VALID,24.8697,VALID,355,VALID,0,
2009-12-24, 02:28:05,VALID,1003.07,VALID,0,VALID,87.9305,VALID,0.100563,VALID,24.8911,VALID,15,VALID,0.455078,
2009-12-24, 02:29:05,VALID,1003.07,VALID,0,VALID,87.549,VALID,0,VALID,24.9495,VALID,344,VALID,0.028125,
2009-12-24, 02:30:05,VALID,1003.09,VALID,0,VALID,87.3354,VALID,0,VALID,24.9885,VALID,344,VALID,0,
2009-12-24, 02:31:05,VALID,1003.09,VALID,0,VALID,87.3049,VALID,0,VALID,25.0098,VALID,344,VALID,0,
2009-12-24, 02:32:05,VALID,1003.1,VALID,0,VALID,87.4117,VALID,0,VALID,24.9885,VALID,344,VALID,0,
2009-12-24, 02:33:05,VALID,1003.09,VALID,0,VALID,87.5261,VALID,0,VALID,24.9904,VALID,344,VALID,0,
2009-12-24, 02:34:05,VALID,1003.09,VALID,0,VALID,87.5948,VALID,0,VALID,24.9495,VALID,344,VALID,0,
2009-12-24, 02:35:05,VALID,1003.09,VALID,0,VALID,87.6863,VALID,0,VALID,24.93,VALID,344,VALID,0,
2009-12-24, 02:36:05,VALID,1003.11,VALID,0,VALID,87.9305,VALID,0,VALID,24.93,VALID,344,VALID,0,
2009-12-24, 02:37:05,VALID,1003.11,VALID,0,VALID,88.1059,VALID,0,VALID,24.9106,VALID,344,VALID,0,
2009-12-24, 02:38:05,VALID,1003.08,VALID,0,VALID,88.1441,VALID,0,VALID,24.9106,VALID,344,VALID,0,
2009-12-24, 02:39:05,VALID,1003.09,VALID,0,VALID,88.2356,VALID,0,VALID,24.8911,VALID,344,VALID,0,
2009-12-24, 02:40:05,VALID,1003.12,VALID,0,VALID,88.5484,VALID,0,VALID,24.8911,VALID,344,VALID,0,
2009-12-24, 02:41:05,VALID,1003.09,VALID,0,VALID,88.3882,VALID,0,VALID,24.9125,VALID,344,VALID,0,
2009-12-24, 02:42:05,VALID,1003.08,VALID,0,VALID,88.3577,VALID,0,VALID,24.8716,VALID,344,VALID,0,
2009-12-24, 02:43:05,VALID,1003.08,VALID,0,VALID,88.5179,VALID,0,VALID,24.8716,VALID,344,VALID,0,
2009-12-24, 02:44:05,VALID,1003.07,VALID,0,VALID,88.5255,VALID,0,VALID,24.8697,VALID,344,VALID,0,
2009-12-24, 02:45:05,VALID,1003.07,VALID,0,VALID,88.8765,VALID,0,VALID,24.93,VALID,344,VALID,0,
2009-12-24, 02:46:05,VALID,1003.06,VALID,0,VALID,88.8841,VALID,0,VALID,24.9495,VALID,344,VALID,0,
2009-12-24, 02:47:05,VALID,1003.05,VALID,0,VALID,89.0824,VALID,0,VALID,24.9495,VALID,344,VALID,0,
2009-12-24, 02:48:05,VALID,1003.07,VALID,0,VALID,89.5249,VALID,0,VALID,25.0079,VALID,344,VALID,0,
2009-12-24, 02:49:05,VALID,1003.03,VALID,0,VALID,89.4181,VALID,0,VALID,24.9866,VALID,344,VALID,0,
2009-12-24, 02:50:05,VALID,1003.03,VALID,0,VALID,89.2732,VALID,0,VALID,24.9885,VALID,344,VALID,0,
2009-12-24, 02:51:05,VALID,1003.03,VALID,0,VALID,89.3494,VALID,0,VALID,24.9495,VALID,344,VALID,0,
2009-12-24, 02:52:05,VALID,1003.01,VALID,0,VALID,89.5783,VALID,0,VALID,24.9087,VALID,344,VALID,0,
2009-12-24, 02:53:05,VALID,1002.98,VALID,0,VALID,89.647,VALID,0,VALID,24.8716,VALID,344,VALID,0,
2009-12-24, 02:54:05,VALID,1002.99,VALID,0,VALID,89.6699,VALID,0,VALID,24.8308,VALID,344,VALID,0,
2009-12-24, 02:55:05,VALID,1003.01,VALID,0,VALID,89.5859,VALID,0,VALID,24.8132,VALID,344,VALID,0,
2009-12-24, 02:56:05,VALID,1002.99,VALID,0,VALID,89.6012,VALID,0,VALID,24.751,VALID,344,VALID,0,
2009-12-24, 02:57:05,VALID,1003,VALID,0,VALID,89.9521,VALID,0,VALID,24.7937,VALID,344,VALID,0,
2009-12-24, 02:58:05,VALID,1002.98,VALID,0,VALID,90.0894,VALID,0,VALID,24.7937,VALID,344,VALID,0,
2009-12-24, 02:59:05,VALID,1002.99,VALID,0,VALID,90.4785,VALID,0,VALID,24.7919,VALID,344,VALID,0,
2009-12-24, 03:00:05,VALID,1002.98,VALID,0,VALID,90.7074,VALID,0,VALID,24.7743,VALID,344,VALID,0,
2009-12-24, 03:01:05,VALID,1002.99,VALID,0,VALID,91.0049,VALID,0,VALID,24.7529,VALID,344,VALID,0,
2009-12-24, 03:02:05,VALID,1002.96,VALID,0,VALID,91.127,VALID,0,VALID,24.7353,VALID,344,VALID,0,
2009-12-24, 03:03:05,VALID,1002.96,VALID,0,VALID,91.2719,VALID,0,VALID,24.7159,VALID,344,VALID,0,
2009-12-24, 03:04:05,VALID,1002.93,VALID,0,VALID,91.4016,VALID,0,VALID,24.6964,VALID,344,VALID,0,
2009-12-24, 03:05:05,VALID,1002.93,VALID,0,VALID,91.5161,VALID,0,VALID,24.6361,VALID,344,VALID,0,
2009-12-24, 03:06:05,VALID,1002.92,VALID,0,VALID,91.5542,VALID,0,VALID,24.6166,VALID,344,VALID,0,
2009-12-24, 03:07:05,VALID,1002.9,VALID,0,VALID,91.5084,VALID,0,VALID,24.599,VALID,344,VALID,0,
2009-12-24, 03:08:05,VALID,1002.93,VALID,0,VALID,91.6,VALID,0,VALID,24.5972,VALID,344,VALID,0,
2009-12-24, 03:09:05,VALID,1002.92,VALID,0,VALID,91.6534,VALID,0,VALID,24.5972,VALID,344,VALID,0,
2009-12-24, 03:10:05,VALID,1002.93,VALID,0,VALID,91.6763,VALID,0,VALID,24.5777,VALID,344,VALID,0,
2009-12-24, 03:11:05,VALID,1002.9,VALID,0,VALID,91.6763,VALID,0,VALID,24.5582,VALID,344,VALID,0,
2009-12-24, 03:12:05,VALID,1002.88,VALID,0,VALID,91.722,VALID,0,VALID,24.5796,VALID,344,VALID,0,
2009-12-24, 03:13:05,VALID,1002.86,VALID,0,VALID,91.7907,VALID,0,VALID,24.5601,VALID,344,VALID,0,
2009-12-24, 03:14:05,VALID,1002.88,VALID,0,VALID,91.8365,VALID,0,VALID,24.5406,VALID,344,VALID,0,
2009-12-24, 03:15:05,VALID,1002.88,VALID,0,VALID,91.9051,VALID,0,VALID,24.4998,VALID,344,VALID,0,
2009-12-24, 03:16:05,VALID,1002.88,VALID,0,VALID,91.9051,VALID,0,VALID,24.4609,VALID,344,VALID,0,
2009-12-24, 03:17:05,VALID,1002.89,VALID,0,VALID,91.9662,VALID,0,VALID,24.4822,VALID,344,VALID,0,
2009-12-24, 03:18:05,VALID,1002.88,VALID,0,VALID,91.989,VALID,0,VALID,24.4609,VALID,344,VALID,0,
2009-12-24, 03:19:05,VALID,1002.89,VALID,0,VALID,92.0119,VALID,0,VALID,24.5017,VALID,344,VALID,0,
2009-12-24, 03:20:05,VALID,1002.89,VALID,0,VALID,91.9738,VALID,0,VALID,24.4804,VALID,344,VALID,0,
2009-12-24, 03:21:05,VALID,1002.92,VALID,0,VALID,91.9204,VALID,0,VALID,24.5017,VALID,344,VALID,0,
2009-12-24, 03:22:05,VALID,1002.87,VALID,0,VALID,91.9128,VALID,0,VALID,24.5017,VALID,344,VALID,0,
2009-12-24, 03:23:05,VALID,1002.9,VALID,0,VALID,91.989,VALID,0,VALID,24.4804,VALID,344,VALID,0,
2009-12-24, 03:24:05,VALID,1002.88,VALID,0,VALID,92.0196,VALID,0,VALID,24.4414,VALID,344,VALID,0,
2009-12-24, 03:25:05,VALID,1002.89,VALID,0,VALID,92.0653,VALID,0,VALID,24.4822,VALID,344,VALID,0,
2009-12-24, 03:26:05,VALID,1002.92,VALID,0,VALID,92.0501,VALID,0,VALID,24.4433,VALID,344,VALID,0,
2009-12-24, 03:27:05,VALID,1002.9,VALID,0,VALID,92.0272,VALID,0,VALID,24.4043,VALID,344,VALID,0,
2009-12-24, 03:28:05,VALID,1002.92,VALID,0,VALID,92.0577,VALID,0,VALID,24.3849,VALID,344,VALID,0,
2009-12-24, 03:29:05,VALID,1002.92,VALID,0,VALID,92.0806,VALID,0,VALID,24.3654,VALID,344,VALID,0,
2009-12-24, 03:30:05,VALID,1002.91,VALID,0,VALID,92.0577,VALID,0,VALID,24.3654,VALID,344,VALID,0,
2009-12-24, 03:31:05,VALID,1002.93,VALID,0,VALID,92.0501,VALID,0,VALID,24.3246,VALID,344,VALID,0,
2009-12-24, 03:32:05,VALID,1002.93,VALID,0,VALID,92.0958,VALID,0,VALID,24.307,VALID,344,VALID,0,
2009-12-24, 03:33:05,VALID,1002.95,VALID,0,VALID,92.2027,VALID,0,VALID,24.2468,VALID,344,VALID,0,
2009-12-24, 03:34:05,VALID,1002.94,VALID,0,VALID,92.2408,VALID,0,VALID,24.2291,VALID,344,VALID,0,
2009-12-24, 03:35:05,VALID,1002.97,VALID,0,VALID,92.2942,VALID,0,VALID,24.1494,VALID,344,VALID,0,
2009-12-24, 03:36:05,VALID,1002.97,VALID,0,VALID,92.34,VALID,0,VALID,24.0716,VALID,344,VALID,0,
2009-12-24, 03:37:05,VALID,1002.96,VALID,0,VALID,92.5231,VALID,0,VALID,24.0734,VALID,344,VALID,0,
2009-12-24, 03:38:05,VALID,1002.95,VALID,0,VALID,92.6146,VALID,0,VALID,24.0752,VALID,344,VALID,0,
2009-12-24, 03:39:05,VALID,1002.97,VALID,0,VALID,92.7596,VALID,0,VALID,24.0345,VALID,344,VALID,0,
2009-12-24, 03:40:05,VALID,1002.98,VALID,0,VALID,92.874,VALID,0,VALID,24.015,VALID,344,VALID,0,
2009-12-24, 03:41:05,VALID,1003,VALID,0,VALID,92.9961,VALID,0,VALID,24.015,VALID,344,VALID,0,
2009-12-24, 03:42:05,VALID,1002.98,VALID,0,VALID,93.0876,VALID,0,VALID,23.9955,VALID,344,VALID,0,
2009-12-24, 03:43:05,VALID,1003.01,VALID,0,VALID,93.1029,VALID,0,VALID,23.9548,VALID,344,VALID,0,
2009-12-24, 03:44:05,VALID,1003,VALID,0,VALID,93.0952,VALID,0,VALID,23.9566,VALID,344,VALID,0,
2009-12-24, 03:45:05,VALID,1003,VALID,0,VALID,93.1334,VALID,0,VALID,23.9159,VALID,344,VALID,0,
2009-12-24, 03:46:05,VALID,1003,VALID,0,VALID,93.1486,VALID,0,VALID,23.8964,VALID,344,VALID,0,
2009-12-24, 03:47:05,VALID,1003.02,VALID,0,VALID,93.2325,VALID,0,VALID,23.8964,VALID,344,VALID,0,
2009-12-24, 03:48:05,VALID,1002.99,VALID,0,VALID,93.2936,VALID,0,VALID,23.8769,VALID,344,VALID,0,
2009-12-24, 03:49:05,VALID,1002.97,VALID,0,VALID,93.347,VALID,0,VALID,23.8982,VALID,344,VALID,0,
2009-12-24, 03:50:05,VALID,1002.99,VALID,0,VALID,93.3546,VALID,0,VALID,23.8575,VALID,344,VALID,0,
2009-12-24, 03:51:05,VALID,1002.96,VALID,0,VALID,93.3851,VALID,0,VALID,23.8593,VALID,344,VALID,0,
2009-12-24, 03:52:05,VALID,1003,VALID,0,VALID,93.4538,VALID,0,VALID,23.8593,VALID,344,VALID,0,